| time (UTC) | temp F | wind direction | speed MPH | gust MPH | rain 1hr in | rain 24hr in | rain mn in | humidity % | barometer mb |
| 20260506073035 | 74 | 114 | 0.0 | 3.0 | 0.00 | 0.00 | 0.00 | 92 | 1010.0 |
| 20260506071600 | 74 | 240 | 0.0 | 3.0 | 0.00 | 0.00 | 0.00 | 92 | 1010.2 |
| 20260506061601 | 74 | 196 | 0.0 | 4.0 | 0.00 | 0.00 | 0.00 | 92 | 1010.3 |
| 20260506044552 | 75 | 7 | 0.0 | 4.0 | 0.00 | 0.00 | 0.00 | 91 | 1010.2 |
| 20260506043036 | 75 | 215 | 1.0 | 4.0 | 0.00 | 0.00 | 0.00 | 91 | 1010.2 |
| 20260506041538 | 75 | 200 | 0.0 | 4.0 | 0.00 | 0.00 | 0.00 | 91 | 1010.2 |
| 20260506040009 | 75 | 244 | 1.0 | 3.0 | 0.00 | 0.00 | 0.00 | 91 | 1010.0 |
| 20260506034553 | 74 | 295 | 0.0 | 5.0 | 0.00 | 0.00 | 0.00 | 91 | 1009.9 |
| 20260506033029 | 74 | 186 | 1.0 | 4.0 | 0.00 | 0.00 | 0.00 | 91 | 1009.6 |
| 20260506031518 | 75 | 240 | 1.0 | 7.0 | 0.00 | 0.00 | 0.00 | 90 | 1009.4 |
| 20260506030005 | 75 | 212 | 2.0 | 4.0 | 0.00 | 0.00 | 0.00 | 89 | 1009.2 |
| 20260506024557 | 76 | 194 | 0.0 | 6.0 | 0.00 | 0.00 | 0.00 | 88 | 1008.9 |
| 20260506023037 | 76 | 229 | 2.0 | 7.0 | 0.00 | 0.00 | 0.00 | 88 | 1008.7 |
| 20260506021528 | 76 | 228 | 1.0 | 5.0 | 0.00 | 0.00 | 0.00 | 87 | 1008.6 |
| 20260506020011 | 77 | 227 | 1.0 | 7.0 | 0.00 | 0.00 | 0.00 | 87 | 1008.5 |
| 20260506014556 | 77 | 111 | 3.0 | 6.0 | 0.00 | 0.00 | 0.00 | 87 | 1008.3 |
| 20260506014503 | 77 | 205 | 3.0 | 6.0 | 0.00 | 0.00 | 0.00 | 87 | 1008.3 |
| 20260506013051 | 77 | 226 | 1.0 | 9.0 | 0.00 | 0.00 | 0.00 | 87 | 1008.1 |
| 20260506011548 | 77 | 195 | 1.0 | 4.0 | 0.00 | 0.00 | 0.00 | 86 | 1007.8 |
| 20260506010044 | 78 | 289 | 1.0 | 10.0 | 0.00 | 0.00 | 0.00 | 85 | 1007.6 |
| 20260506004559 | 78 | 192 | 2.0 | 6.0 | 0.00 | 0.00 | 0.00 | 84 | 1007.3 |
| 20260506004506 | 78 | 110 | 1.0 | 9.0 | 0.00 | 0.00 | 0.00 | 84 | 1007.3 |
| 20260506003042 | 79 | 215 | 2.0 | 8.0 | 0.00 | 0.00 | 0.00 | 83 | 1007.1 |
| 20260506001535 | 80 | 360 | 2.0 | 5.0 | 0.00 | 0.00 | 0.00 | 81 | 1007.0 |
| 20260506000059 | 80 | 206 | 1.0 | 10.0 | 0.00 | 0.00 | 0.00 | 79 | 1007.1 |
| 20260505234545 | 81 | 150 | 2.0 | 8.0 | 0.00 | 0.00 | 0.00 | 78 | 1007.0 |
| 20260505233041 | 81 | 217 | 1.0 | 4.0 | 0.00 | 0.00 | 0.00 | 78 | 1007.0 |
| 20260505231529 | 82 | 241 | 2.0 | 7.0 | 0.00 | 0.00 | 0.00 | 77 | 1007.0 |
| 20260505230007 | 82 | 185 | 2.0 | 7.0 | 0.00 | 0.00 | 0.00 | 76 | 1007.1 |
| 20260505224551 | 83 | 120 | 2.0 | 10.0 | 0.00 | 0.00 | 0.00 | 74 | 1007.3 |
| 20260505223019 | 83 | 186 | 4.0 | 10.0 | 0.00 | 0.00 | 0.00 | 74 | 1007.3 |
| 20260505221549 | 83 | 62 | 3.0 | 9.0 | 0.00 | 0.00 | 0.00 | 74 | 1007.3 |
| 20260505220042 | 84 | 289 | 2.0 | 11.0 | 0.00 | 0.00 | 0.00 | 73 | 1007.3 |
| 20260505214600 | 84 | 283 | 4.0 | 13.0 | 0.00 | 0.00 | 0.00 | 73 | 1007.3 |
| 20260505213023 | 83 | 255 | 3.0 | 11.0 | 0.00 | 0.00 | 0.00 | 73 | 1007.3 |
| 20260505211542 | 83 | 210 | 3.0 | 9.0 | 0.00 | 0.00 | 0.00 | 74 | 1007.6 |
| 20260505210019 | 84 | 254 | 3.0 | 9.0 | 0.00 | 0.00 | 0.00 | 71 | 1007.9 |
| 20260505204601 | 84 | 267 | 4.0 | 12.0 | 0.00 | 0.00 | 0.00 | 73 | 1008.2 |
| 20260505203025 | 83 | 224 | 4.0 | 10.0 | 0.00 | 0.00 | 0.00 | 73 | 1008.4 |
| 20260505201556 | 84 | 269 | 4.0 | 12.0 | 0.00 | 0.00 | 0.00 | 72 | 1008.6 |
| 20260505200025 | 83 | 204 | 5.0 | 12.0 | 0.00 | 0.00 | 0.00 | 71 | 1008.8 |
| 20260505194601 | 84 | 252 | 3.0 | 9.0 | 0.00 | 0.00 | 0.00 | 71 | 1008.8 |
| 20260505193035 | 82 | 169 | 4.0 | 11.0 | 0.00 | 0.00 | 0.00 | 75 | 1009.2 |
| 20260505191550 | 82 | 248 | 4.0 | 12.0 | 0.00 | 0.00 | 0.00 | 75 | 1009.1 |
| 20260505190017 | 81 | 193 | 4.0 | 10.0 | 0.00 | 0.00 | 0.00 | 77 | 1009.2 |
| 20260505184539 | 81 | 185 | 3.0 | 11.0 | 0.00 | 0.00 | 0.00 | 77 | 1009.4 |
| 20260505183003 | 81 | 236 | 2.0 | 7.0 | 0.00 | 0.00 | 0.00 | 78 | 1009.5 |
| 20260505181528 | 79 | 183 | 5.0 | 13.0 | 0.00 | 0.00 | 0.00 | 79 | 1009.5 |
| 20260505180100 | 80 | 197 | 2.0 | 13.0 | 0.00 | 0.00 | 0.00 | 78 | 1009.6 |
| 20260505174516 | 80 | 157 | 4.0 | 14.0 | 0.00 | 0.00 | 0.00 | 78 | 1009.6 |
| 20260505173051 | 78 | 278 | 2.0 | 7.0 | 0.00 | 0.00 | 0.00 | 84 | 1009.7 |
| 20260505171513 | 77 | 256 | 3.0 | 9.0 | 0.00 | 0.00 | 0.00 | 82 | 1009.9 |
| 20260505170043 | 77 | 194 | 2.0 | 10.0 | 0.00 | 0.00 | 0.00 | 83 | 1010.1 |
| 20260505164507 | 76 | 295 | 1.0 | 5.0 | 0.00 | 0.00 | 0.00 | 85 | 1010.2 |
| 20260505163040 | 75 | 220 | 1.0 | 8.0 | 0.00 | 0.00 | 0.00 | 86 | 1010.2 |
| 20260505161533 | 75 | 221 | 1.0 | 8.0 | 0.00 | 0.00 | 0.00 | 86 | 1010.3 |
| 20260505153105 | 75 | 135 | 2.0 | 9.0 | 0.00 | 0.00 | 0.00 | 86 | 1009.7 |
| 20260505151539 | 74 | 210 | 1.0 | 10.0 | 0.00 | 0.00 | 0.00 | 88 | 1009.9 |
| 20260505124544 | 69 | 250 | 2.0 | 5.0 | 0.00 | 0.00 | 0.00 | 92 | 1009.9 |
| 20260505123021 | 69 | 195 | 0.0 | 7.0 | 0.00 | 0.00 | 0.00 | 93 | 1009.5 |
| 20260505121549 | 68 | 138 | 2.0 | 10.0 | 0.00 | 0.00 | 0.00 | 93 | 1009.1 |
| 20260505120013 | 68 | 161 | 0.0 | 6.0 | 0.00 | 0.00 | 0.00 | 93 | 1009.3 |
| 20260505114559 | 68 | 131 | 1.0 | 5.0 | 0.00 | 0.00 | 0.00 | 93 | 1009.6 |
| 20260505114504 | 68 | 212 | 1.0 | 5.0 | 0.00 | 0.00 | 0.00 | 93 | 1009.6 |
| 20260505113110 | 68 | 235 | 2.0 | 6.0 | 0.00 | 0.00 | 0.00 | 93 | 1009.2 |
| 20260505111521 | 67 | 238 | 1.0 | 6.0 | 0.00 | 0.00 | 0.00 | 93 | 1009.1 |
| 20260505101542 | 67 | 115 | 0.0 | 5.0 | 0.00 | 0.00 | 0.00 | 93 | 1009.1 |
| 20260505100029 | 66 | 150 | 1.0 | 3.0 | 0.00 | 0.00 | 0.00 | 93 | 1009.1 |
| 20260505094523 | 66 | 90 | 0.0 | 3.0 | 0.00 | 0.00 | 0.00 | 93 | 1009.2 |
| 20260505093007 | 66 | 198 | 0.0 | 2.0 | 0.00 | 0.00 | 0.00 | 93 | 1009.4 |
| 20260505091556 | 66 | 208 | 0.0 | 2.0 | 0.00 | 0.00 | 0.00 | 93 | 1009.8 |
| 20260505091501 | 66 | 208 | 0.0 | 2.0 | 0.00 | 0.00 | 0.00 | 93 | 1009.8 |
| 20260505090051 | 66 | 282 | 0.0 | 4.0 | 0.00 | 0.00 | 0.00 | 92 | 1009.8 |
| 20260505084547 | 66 | 202 | 0.0 | 3.0 | 0.00 | 0.00 | 0.00 | 91 | 1009.7 |
| 20260505083025 | 66 | 237 | 1.0 | 8.0 | 0.00 | 0.00 | 0.00 | 92 | 1010.0 |
| 20260505081515 | 65 | 325 | 0.0 | 2.0 | 0.00 | 0.00 | 0.00 | 92 | 1010.0 |
| 20260505080032 | 65 | 189 | 0.0 | 2.0 | 0.00 | 0.00 | 0.00 | 91 | 1010.2 |
| 20260505074525 | 65 | 209 | 0.0 | 2.0 | 0.00 | 0.00 | 0.00 | 91 | 1010.4 |